DateTimeUTC,F1_A11,F1_S11,BsB_S11,BsG_S11,BsR_S11,BbsB_S11,BbsG_S11,BbsR_S11,BaB_A11,BaG_A11,BaR_A11,Tu_S11,T_S11,Uu_S11,U_S11,P_S11,T1_A11
2021-09-17T07:00:00Z,00000200,21000000,,,,,,,-000.50,-000.87,-000.72,18.0,25.3,,00.0,0658.2,31.0
2021-09-17T07:01:00Z,00000200,21000000,,,,,,,-000.88,-000.31,-000.43,18.0,25.3,,00.0,0658.2,31.0
2021-09-17T07:02:00Z,00000200,21000000,,,,,,,-000.36,-000.43,-000.16,18.0,25.3,,00.0,0658.2,31.0
2021-09-17T07:03:00Z,00000200,61000000,,,,,,,-000.76,-000.84,-000.81,18.0,25.4,,00.0,0658.2,31.0
2021-09-17T07:04:00Z,00000200,41000000,0001.06,0000.24,0000.23,0000.10,0000.03,-000.11,-000.77,-000.71,-000.53,18.4,25.2,,00.0,0659.1,31.0
2021-09-17T07:05:00Z,00000200,01000000,0000.27,0000.99,0000.11,-000.08,-000.31,-000.09,-000.82,-000.62,-000.47,18.4,25.2,,00.0,0659.2,31.0
2021-09-17T07:06:00Z,00000200,01000000,0001.19,0000.67,-000.01,0000.61,0000.01,-000.22,-000.61,-000.41,-000.69,18.3,25.1,,00.0,0659.2,31.0
2021-09-17T07:07:00Z,00000200,01000000,0000.27,0000.41,0000.34,-000.04,0000.15,-000.12,0000.25,0000.12,0000.29,18.2,25.0,,00.0,0659.2,31.0
2021-09-17T07:08:00Z,00000200,01000000,0000.95,0000.57,0000.20,0000.77,-000.17,-000.24,0000.45,-000.06,0000.19,18.1,25.0,,00.0,0659.2,30.9
2021-09-17T07:09:00Z,00000200,01000000,0000.71,0000.24,0000.22,0000.87,-000.07,-000.11,0001.70,0001.61,0001.09,18.0,24.9,,00.0,0659.2,30.9
2021-09-17T07:10:00Z,00000200,01000000,0000.10,0000.05,-000.01,-000.28,0000.12,-000.34,0001.14,0000.94,0000.70,18.0,24.9,,00.0,0659.2,30.9
2021-09-17T07:11:00Z,00000200,01000000,-000.66,0000.31,-000.09,0000.03,-000.07,-000.18,0000.13,0000.43,0000.54,18.0,24.9,,00.0,0659.2,30.9
2021-09-17T07:12:00Z,00000200,01000000,0000.42,0000.30,0000.13,-000.28,0000.27,-000.11,0000.66,0000.93,0000.80,18.1,24.9,,00.0,0659.2,31.0
2021-09-17T07:13:00Z,00000200,01000000,-000.79,0000.19,0000.11,0000.18,-000.09,-000.07,0000.11,-000.14,-000.38,18.2,25.0,,00.0,0659.2,31.0
2021-09-17T07:14:00Z,00000200,01000000,-000.25,0000.13,0000.09,0000.04,0000.13,0000.18,0000.19,0000.27,0000.30,18.2,25.0,,00.0,0659.2,31.0
2021-09-17T07:15:00Z,00000200,01000000,-000.04,0000.46,-000.05,0000.17,0000.08,-000.27,0000.37,0000.11,0000.48,18.3,25.0,,00.0,0659.2,31.0
2021-09-17T07:16:00Z,00000200,01000000,0000.09,0000.09,-000.02,-000.16,0000.17,-000.15,-000.15,0000.14,-000.39,18.4,25.1,,00.0,0659.3,31.0
2021-09-17T07:17:00Z,00000200,01000000,0000.98,0000.36,-000.11,0000.40,0000.15,0000.01,0000.06,-000.07,0000.06,18.4,25.1,,00.0,0659.3,31.0
2021-09-17T07:18:00Z,00000200,01000000,0001.06,0000.24,0000.06,0000.27,0000.33,-000.09,0000.05,-000.17,-000.01,18.4,25.1,,00.0,0659.3,31.0
2021-09-17T07:19:00Z,00000200,01000000,0000.60,0000.36,-000.00,0000.59,0000.13,0000.16,0000.01,0000.34,-000.18,18.3,25.1,,00.0,0659.3,31.0
2021-09-17T07:20:00Z,00000200,01000000,0000.38,0000.63,0000.64,0000.57,-000.01,0000.05,0000.01,-000.20,-000.01,18.2,25.0,,00.0,0659.2,31.0
2021-09-17T07:21:00Z,00000200,01000000,0000.57,0000.38,0000.06,0000.01,0000.30,-000.00,0000.00,-000.00,0000.21,18.1,24.9,,00.0,0659.2,31.0
2021-09-17T07:22:00Z,00000200,01000000,0000.34,0000.01,0000.05,0000.36,-000.33,-000.04,-000.10,-000.21,-000.42,18.0,24.9,,00.0,0659.2,30.9
2021-09-17T07:23:00Z,00000200,01000000,0000.81,0000.31,0000.10,-000.01,0000.04,-000.02,-000.07,0000.36,0000.50,17.9,24.8,,00.0,0659.2,30.9
2021-09-17T07:24:00Z,00000200,01000000,0000.75,0000.52,0000.23,0000.16,0000.22,0000.06,0000.61,-000.19,0000.17,17.8,24.7,,00.0,0659.2,30.9
2021-09-17T07:25:00Z,00000200,01000000,0000.42,0000.29,0000.21,0000.01,0000.10,0000.03,0000.54,0000.68,-000.10,17.8,24.7,,00.0,0659.2,30.9
2021-09-17T07:26:00Z,00000200,01000000,-000.28,0000.46,-000.02,0000.24,0000.34,-000.08,0000.10,0000.55,0000.79,17.9,24.7,,00.0,0659.2,30.9
2021-09-17T07:27:00Z,00000200,01000000,0001.07,0000.08,-000.14,0000.13,-000.09,-000.29,0000.22,0000.12,0000.29,17.9,24.7,,00.0,0659.2,31.0
2021-09-17T07:28:00Z,00000200,01000000,0000.03,0000.18,-000.04,0000.29,-000.19,-000.01,0000.25,-000.15,-000.13,18.0,24.8,,00.0,0659.2,31.0
2021-09-17T07:29:00Z,00000200,01000000,0000.19,0000.00,-000.06,-000.28,0000.02,-000.15,0000.31,0000.47,0000.37,18.1,24.8,,00.0,0659.2,31.0
2021-09-17T07:30:00Z,00000200,01000000,0000.23,0000.32,-000.18,0000.23,0000.09,0000.15,0000.24,0000.74,0000.27,18.2,24.9,,00.0,0659.2,31.0
2021-09-17T07:31:00Z,00000200,01000000,-000.30,0000.14,-000.23,0000.30,-000.34,-000.13,0000.38,-000.02,-000.01,18.3,24.9,,00.0,0659.2,31.0
2021-09-17T07:32:00Z,00000200,01000000,0000.30,0000.28,0000.21,-000.19,-000.26,0000.13,0000.30,0000.31,0000.36,18.3,25.0,,00.0,0659.3,31.0
2021-09-17T07:33:00Z,00000200,01000000,-000.32,-000.13,0000.19,0000.03,-000.00,-000.41,0000.07,0000.46,0000.16,18.4,25.0,,00.0,0659.3,31.0
2021-09-17T07:34:00Z,00000200,01000000,-000.43,-000.01,-000.17,-000.51,0000.10,0000.18,0000.50,-000.34,0000.18,18.5,25.0,,00.0,0659.3,31.0
2021-09-17T07:35:00Z,00000200,01000000,-000.31,0000.16,-000.18,0000.02,0000.02,-000.27,0000.25,0000.68,0000.48,18.5,25.0,,00.0,0659.3,31.0
2021-09-17T07:36:00Z,00000200,01000000,0000.44,-000.08,0000.08,0000.00,0000.19,-000.30,0000.23,-000.10,-000.51,18.4,25.0,,00.0,0659.3,31.0
2021-09-17T07:37:00Z,00000200,01000000,-000.13,-000.12,-000.12,0000.47,0000.01,0000.02,-000.24,-000.11,0000.08,18.3,25.0,,00.0,0659.2,31.0
2021-09-17T07:38:00Z,00000200,01000000,-000.52,0000.15,-000.01,-000.45,-000.04,-000.09,-000.01,0000.16,0000.09,18.2,25.0,,00.0,0659.2,31.0
2021-09-17T07:39:00Z,00000200,01000000,-000.12,0000.01,0000.05,0000.32,-000.04,0000.00,0000.42,0000.33,0000.47,18.2,24.9,,00.0,0659.2,31.0
2021-09-17T07:40:00Z,00000200,01000000,0000.41,0000.21,0000.01,-000.48,-000.04,0000.05,0000.63,0000.42,-000.01,18.2,24.9,,00.0,0659.2,31.0
2021-09-17T07:41:00Z,00000200,01000000,0000.01,-000.25,-000.03,0000.40,-000.27,-000.03,0000.15,0000.39,0000.60,18.2,24.9,,00.0,0659.2,31.0
2021-09-17T07:42:00Z,00000200,01000000,0000.29,0000.55,0000.06,0000.15,0000.05,0000.02,0000.38,0000.14,0000.24,18.3,24.9,,00.0,0659.2,31.0
2021-09-17T07:43:00Z,00000200,01000000,-000.59,0000.05,-000.21,-000.29,-000.08,-000.21,0000.22,0000.39,0000.26,18.4,25.0,,00.0,0659.2,31.0
2021-09-17T07:44:00Z,00000200,01000000,-000.59,-000.03,-000.06,0000.60,-000.00,0000.21,0000.27,-000.08,0000.16,18.4,25.0,,00.0,0659.2,31.0
2021-09-17T07:45:00Z,00000200,01000000,-000.60,0000.23,-000.16,0000.14,-000.15,-000.04,0000.24,0000.46,0000.12,18.5,25.0,,00.0,0659.2,31.0
2021-09-17T07:46:00Z,00000200,01000000,-000.31,-000.05,0000.08,0000.23,0000.23,-000.16,0000.18,0000.13,-000.10,18.5,25.1,,00.0,0659.3,31.0
2021-09-17T07:47:00Z,00000200,01000000,0000.40,0000.14,-000.27,0000.18,0000.12,0000.02,-000.15,-000.20,0000.20,18.6,25.1,,00.0,0659.3,31.0
2021-09-17T07:48:00Z,00000200,01000000,0000.33,0000.23,-000.44,0000.82,-000.21,-000.19,0000.42,0000.33,-000.01,18.7,25.1,,00.0,0659.3,31.0
2021-09-17T07:49:00Z,00000200,01000000,-000.48,-000.36,-000.08,0000.51,-000.15,-000.22,-000.35,-000.44,-000.21,18.6,25.1,,00.0,0659.2,31.0
2021-09-17T07:50:00Z,00000200,01000000,-000.10,-000.14,-000.46,0000.30,0000.16,-000.49,-000.11,0000.01,0000.10,18.5,25.1,,00.0,0659.2,31.0
2021-09-17T07:51:00Z,00000200,01000000,-000.32,0000.15,0000.06,-000.48,-000.21,-000.38,-000.23,-000.01,-000.47,18.4,25.1,,00.0,0659.2,31.0
2021-09-17T07:52:00Z,00000200,01000000,-000.30,0000.27,0000.15,-000.26,0000.09,0000.02,0000.35,-000.11,0000.07,18.3,25.0,,00.0,0659.2,31.0
2021-09-17T07:53:00Z,00000200,01000000,0000.62,0000.17,-000.24,-000.17,-000.07,0000.05,-000.14,0000.17,0000.22,18.2,25.0,,00.0,0659.2,30.9
2021-09-17T07:54:00Z,00000200,01000000,0000.63,0000.11,-000.01,0000.11,0000.02,0000.08,0000.42,0000.47,0000.32,18.2,24.9,,00.0,0659.2,30.9
2021-09-17T07:55:00Z,00000200,01000000,0000.52,-000.21,0000.04,0000.23,-000.06,-000.47,0000.19,0000.28,0000.45,18.2,24.9,,00.0,0659.2,30.9
2021-09-17T07:56:00Z,00000200,01000000,-000.54,-000.01,-000.10,-000.16,0000.36,-000.40,0000.12,-000.12,-000.14,18.2,24.9,,00.0,0659.2,31.0
2021-09-17T07:57:00Z,00000200,41000000,,,,,,,-001.98,-001.50,-001.10,18.3,24.9,,00.0,0659.2,31.0
2021-09-17T07:58:00Z,00000200,61000000,,,,,,,0000.56,0000.44,0000.22,18.0,25.1,,00.0,0658.2,31.0
2021-09-17T07:59:00Z,00000200,21000000,,,,,,,-000.12,-000.11,-000.22,18.0,25.2,,00.0,0658.2,31.0
